map of TPE home
TPE - Airport
Location
City:  Taipei, Taiwan
Name:Taiwan Taoyuan International Airport
Old (Alt.):Chiang Kai Shek International Airport
ICAO:RCTP
IATA:TPE

Details
Type:Airport (Aerodrome, Airfield)
Use:Public/Civil, International (customs port of entry)
Latitude:2504'40"N (25.077731)
Longitude:12113'58"E (121.232822)
Datum:WGS 1984
Elevation:106 ft (32 m)
Variation:4.48W (WMM2015 magnetic declination)
-0.09 annual change
Runways:2
Longest:12008 × 197 ft (3660 × 60 m), paved

Time
Time Zone:UTC+8
Local Time:

Weather
METAR:RCTP 231030Z 04014KT 9999 FEW009 BKN018 25/22 Q1011 NOSIG RMK A2986
TAF:RCTP 230500Z 2306/2412 04010KT 8000 FEW015 BKN032
TEMPO 2306/2312 03015KT FEW010 BKN018 BKN040
TEMPO 2318/2324 06005KT
BECMG 2410/2412 08005KT

Related Locations
Nearby:
Farthest:CLX: 12379 mi / 19922 km
Clorinda [Clorinda Airport], P, AR

Find:

   beyond  
but within

Other Information
Maps:
NOTAMs:
Links:
Sources:

  
flag of Taiwan
flag of Taipei
  

Sectional Chart

Flight Planning
at skyvector.com

Satellite Image

Google Maps Satellite view

 

Copyright © 2004-2018 Karl L. Swartz. All rights reserved.
The Great Circle Mapper name and logo are trademarks of the Great Circle Mapper.
All other trademarks mentioned herein belong to their respective owners.
Please see credits for attibutions and further copyright information.

  Follow gcmap on Facebook Follow gcmap on Twitter Follow gcmap on Google+ GCmap on LinkedIn

hCard Microformat

Geo Microformat